Waukegan, IL

7:47 PM CDT on August 21, 2017 (GMT -0500)
Waukegan Regional

Weather History for KUGN - April, 2013

Change the Weather History Date:

Wednesday, April 24, 2013

  Actual Average Record
Temperature  
Mean Temperature 44 °F -  
Max Temperature 51 °F 59 °F 84 °F (2009)
Min Temperature 36 °F 40 °F 25 °F (2015)
Degree Days  
Heating Degree Days 21 16  
Month to date heating degree days 556 485  
Since 1 July heating degree days 6236 6355  
Cooling Degree Days 0 0  
Month to date cooling degree days 0 0  
Year to date cooling degree days 0 0  
Moisture  
Dew Point 30 °F    
Average Humidity 63    
Maximum Humidity 92    
Minimum Humidity 33    
Precipitation  
Precipitation 0.09 in 0.12 in 0.57 in (2010)
Month to date precipitation 7.67 2.60  
Year to date precipitation 11.09 7.97  
Sea Level Pressure  
Sea Level Pressure 30.02 in    
Wind  
Wind Speed 8 mph (NW)    
Max Wind Speed 18 mph    
Max Gust Speed 26 mph    
Visibility 10 miles    
Events Rain    
T = Trace of Precipitation, MM = Missing Value Source: NWS Daily Summary

Daily Weather History Graph

Daily Weather History Graph

Search for Another Location

Airport or City:

Trip Planner

Search our weather history database for the weather conditions in past years. The results will help you decide how hot, cold, wet, or windy it might be!

Date:

Astronomy

Apr. 24, 2013 Rise Set
Actual Time 5:56 AM CDT 7:43 PM CDT
Civil Twilight 5:26 AM CDT 8:13 PM CDT
Nautical Twilight 4:49 AM CDT 8:50 PM CDT
Astronomical Twilight 4:10 AM CDT 9:29 PM CDT
Moon 6:46 PM CDT (4/24) 5:01 AM CDT (4/24)
Length of Visible Light 14h 47m
Length of Day
13h 47m
Waxing Gibbous, 98% of the Moon is Illuminated
Apr 24
Waxing Gibbous
Apr 25
Full
May 2
Last Quarter
May 9
New
May 17
First Quarter

Hourly Weather History & Observations

Time (CDT) Temp. Windchill Dew Point Humidity Pressure Visibility Wind Dir Wind Speed Gust Speed Precip Events Conditions
12:17 AM 37.4 °F 34.9 °F 35.6 °F 93% 29.94 in 9.0 mi NNE 3.5 mph - 0.00 in Rain Light Rain
12:52 AM 37.9 °F 34.4 °F 37.0 °F 97% 29.96 in 7.0 mi North 4.6 mph - 0.01 in Rain Light Rain
1:00 AM 37.4 °F 32.1 °F 35.6 °F 93% 29.95 in 6.0 mi North 6.9 mph - 0.00 in Rain Light Rain
1:52 AM 37.0 °F 32.4 °F 35.1 °F 93% 29.98 in 7.0 mi North 5.8 mph - 0.03 in Rain Light Rain
2:52 AM 36.0 °F 30.3 °F 34.0 °F 93% 29.97 in 7.0 mi North 6.9 mph - 0.05 in Rain Light Rain
3:32 AM 35.6 °F 30.7 °F 33.8 °F 93% 29.93 in 10.0 mi NNE 5.8 mph - 0.01 in Rain Light Rain
3:52 AM 37.0 °F 33.3 °F 35.1 °F 93% 29.97 in 10.0 mi North 4.6 mph - 0.01 in   Overcast
4:19 AM 37.4 °F 31.4 °F 33.8 °F 87% 29.95 in 10.0 mi North 8.1 mph - N/A   Overcast
4:52 AM 37.0 °F 33.3 °F 34.0 °F 89% 29.99 in 10.0 mi North 4.6 mph - N/A   Overcast
5:52 AM 37.0 °F 32.4 °F 33.1 °F 86% 29.99 in 10.0 mi North 5.8 mph - N/A   Overcast
6:52 AM 37.0 °F 32.4 °F 32.0 °F 82% 30.00 in 10.0 mi NW 5.8 mph - N/A   Overcast
7:52 AM 37.0 °F 31.6 °F 28.9 °F 73% 30.02 in 10.0 mi NNW 6.9 mph - N/A   Overcast
8:52 AM 37.9 °F 32.1 °F 27.0 °F 65% 30.01 in 10.0 mi NNW 8.1 mph - N/A   Mostly Cloudy
9:52 AM 39.0 °F 34.8 °F 27.0 °F 62% 30.03 in 10.0 mi NNW 5.8 mph - N/A   Mostly Cloudy
10:52 AM 39.0 °F 32.3 °F 26.1 °F 60% 30.05 in 10.0 mi NW 10.4 mph - N/A   Mostly Cloudy
11:52 AM 42.1 °F 37.1 °F 27.0 °F 55% 30.03 in 10.0 mi NNW 8.1 mph 17.3 mph N/A   Scattered Clouds
12:52 PM 45.0 °F 42.6 °F 27.0 °F 49% 30.04 in 10.0 mi Variable 4.6 mph - N/A   Scattered Clouds
1:52 PM 48.0 °F - 25.0 °F 41% 30.04 in 10.0 mi West 6.9 mph - N/A   Mostly Cloudy
2:52 PM 48.0 °F - 25.0 °F 41% 30.04 in 10.0 mi West 10.4 mph 16.1 mph N/A   Mostly Cloudy
3:52 PM 50.0 °F - 23.0 °F 35% 30.04 in 10.0 mi West 8.1 mph 19.6 mph N/A   Scattered Clouds
4:52 PM 51.1 °F - 25.0 °F 36% 30.03 in 10.0 mi WSW 10.4 mph 18.4 mph N/A   Scattered Clouds
5:52 PM 50.0 °F - 26.1 °F 39% 30.04 in 10.0 mi Variable 6.9 mph 26.5 mph N/A   Scattered Clouds
6:52 PM 48.9 °F - 25.0 °F 39% 30.04 in 10.0 mi Variable 5.8 mph 17.3 mph N/A   Clear
7:52 PM 46.0 °F 44.8 °F 26.1 °F 46% 30.06 in 10.0 mi Variable 3.5 mph - N/A   Clear
8:52 PM 42.1 °F 36.1 °F 30.0 °F 62% 30.09 in 10.0 mi SSW 10.4 mph - N/A   Clear
9:52 PM 42.1 °F 35.7 °F 30.0 °F 62% 30.10 in 10.0 mi SSW 11.5 mph - N/A   Clear
10:52 PM 42.1 °F 35.7 °F 30.0 °F 62% 30.10 in 10.0 mi SSW 11.5 mph - N/A   Clear
11:52 PM 42.1 °F 35.2 °F 28.9 °F 60% 30.09 in 10.0 mi SSW 12.7 mph - N/A   Clear